TimeCDT,TemperatureF,Dew PointF,Humidity,Sea Level PressureIn,VisibilityMPH,Wind Direction,Wind SpeedMPH,Gust SpeedMPH,PrecipitationIn,Events,Conditions,WindDirDegrees,DateUTC
12:52 AM,42.1,32.0,67,30.30,10.0,NNE,6.9,-,N/A,,Overcast,30,2013-04-17 05:52:00
1:52 AM,43.0,30.0,60,30.30,10.0,NE,9.2,17.3,N/A,,Overcast,40,2013-04-17 06:52:00
2:52 AM,41.0,32.0,70,30.31,10.0,NNE,8.1,-,N/A,,Overcast,30,2013-04-17 07:52:00
3:52 AM,41.0,32.0,70,30.30,10.0,NNE,11.5,-,N/A,,Overcast,30,2013-04-17 08:52:00
4:52 AM,39.0,33.1,79,30.27,10.0,NE,11.5,-,N/A,,Scattered Clouds,40,2013-04-17 09:52:00
5:52 AM,39.0,33.1,79,30.28,10.0,NE,9.2,19.6,N/A,,Mostly Cloudy,40,2013-04-17 10:52:00
6:52 AM,39.0,34.0,82,30.28,10.0,NNE,9.2,-,N/A,,Mostly Cloudy,30,2013-04-17 11:52:00
7:52 AM,41.0,34.0,76,30.31,10.0,NNE,6.9,-,N/A,,Mostly Cloudy,30,2013-04-17 12:52:00
8:52 AM,41.0,35.1,79,30.28,10.0,NE,10.4,16.1,0.00,,Partly Cloudy,40,2013-04-17 13:52:00
9:52 AM,39.9,36.0,86,30.18,8.0,NE,16.1,-,0.01,Rain,Light Rain,50,2013-04-17 14:52:00
10:52 AM,42.1,37.0,82,30.23,10.0,NNE,9.2,-,0.03,,Partly Cloudy,30,2013-04-17 15:52:00
11:52 AM,39.9,36.0,86,30.23,6.0,NE,6.9,18.4,0.02,Rain-Thunderstorm,Light Rain,40,2013-04-17 16:52:00
12:21 PM,39.2,37.4,93,30.13,2.5,East,23.0,28.8,0.07,Rain-Thunderstorm,Thunderstorms and Rain,80,2013-04-17 17:21:00
12:33 PM,39.2,37.4,93,30.10,1.0,East,21.9,33.4,0.19,Rain-Thunderstorm,Heavy Thunderstorms and Rain,80,2013-04-17 17:33:00
12:52 PM,39.9,37.9,93,30.14,1.2,ENE,12.7,26.5,0.36,Rain-Thunderstorm,Light Thunderstorms and Rain,70,2013-04-17 17:52:00
12:55 PM,39.2,37.4,93,30.14,3.0,Variable,5.8,26.5,0.01,Rain-Thunderstorm,Light Thunderstorms and Rain,0,2013-04-17 17:55:00
1:48 PM,39.2,37.4,93,30.13,1.8,North,11.5,18.4,0.18,Rain-Thunderstorm,Heavy Thunderstorms and Rain,360,2013-04-17 18:48:00
1:52 PM,39.9,37.9,93,30.10,1.0,NE,12.7,18.4,0.25,Rain-Thunderstorm,Heavy Thunderstorms and Rain,40,2013-04-17 18:52:00
2:05 PM,39.2,39.2,100,30.07,1.5,ENE,15.0,24.2,0.07,Rain-Thunderstorm,Thunderstorms and Rain,60,2013-04-17 19:05:00
2:33 PM,39.2,39.2,100,30.12,1.5,NNE,11.5,17.3,0.35,Rain-Thunderstorm,Heavy Thunderstorms and Rain,20,2013-04-17 19:33:00
2:39 PM,39.2,39.2,100,30.10,2.0,NE,10.4,17.3,0.38,Rain-Thunderstorm,Heavy Thunderstorms and Rain,40,2013-04-17 19:39:00
2:52 PM,41.0,39.9,96,30.23,2.0,WNW,16.1,25.3,0.44,Rain-Thunderstorm,Heavy Rain,300,2013-04-17 19:52:00
3:02 PM,41.0,39.2,93,30.11,1.0,North,10.4,26.5,0.16,Rain-Thunderstorm,Heavy Thunderstorms and Rain,350,2013-04-17 20:02:00
3:32 PM,41.0,39.2,93,30.12,1.2,NNE,8.1,-,0.35,Rain-Thunderstorm,Heavy Rain,30,2013-04-17 20:32:00
3:40 PM,41.0,39.2,93,30.07,1.0,ENE,19.6,23.0,0.43,Rain-Thunderstorm,Heavy Rain,70,2013-04-17 20:40:00
3:43 PM,41.0,39.2,93,30.07,0.8,ENE,21.9,27.6,0.47,Rain,Heavy Rain,70,2013-04-17 20:43:00
3:45 PM,41.0,39.2,93,30.08,1.0,ENE,17.3,27.6,0.47,Rain-Thunderstorm,Heavy Rain,70,2013-04-17 20:45:00
4:00 PM,41.0,39.2,93,30.06,2.0,East,18.4,25.3,0.03,Rain-Thunderstorm,Rain,80,2013-04-17 21:00:00
4:12 PM,41.0,41.0,100,30.02,2.0,ENE,19.6,27.6,0.07,Rain,Rain,70,2013-04-17 21:12:00
4:30 PM,41.0,41.0,100,30.00,4.0,ENE,17.3,25.3,0.11,Rain,Light Rain,60,2013-04-17 21:30:00
4:50 PM,42.8,41.0,93,29.97,2.5,ESE,20.7,28.8,0.14,Rain-Thunderstorm,Rain,110,2013-04-17 21:50:00
4:52 PM,42.1,42.1,100,29.99,2.5,East,21.9,28.8,0.14,Rain-Thunderstorm,Rain,100,2013-04-17 21:52:00
4:59 PM,42.8,42.8,100,29.97,3.0,ENE,12.7,28.8,0.01,Rain-Thunderstorm,Light Rain,70,2013-04-17 21:59:00
5:05 PM,42.8,42.8,100,29.99,4.0,East,12.7,21.9,0.02,Rain,Light Rain,80,2013-04-17 22:05:00
5:19 PM,42.8,42.8,100,30.06,7.0,NE,8.1,-,0.02,Rain,Light Rain,50,2013-04-17 22:19:00
5:52 PM,43.0,42.1,97,30.08,6.0,NE,6.9,-,0.02,Rain,Light Rain,40,2013-04-17 22:52:00
6:52 PM,42.1,42.1,100,29.97,5.0,East,16.1,-,0.05,Rain,Light Rain,80,2013-04-17 23:52:00
7:22 PM,42.8,41.0,93,29.92,5.0,ENE,11.5,-,0.02,Rain,Light Rain,60,2013-04-18 00:22:00
7:52 PM,41.0,41.0,100,29.92,4.0,ESE,6.9,-,0.03,Rain,Light Rain,110,2013-04-18 00:52:00
8:49 PM,42.8,42.8,100,29.94,5.0,NNW,5.8,-,0.01,Rain,Light Rain,340,2013-04-18 01:49:00
8:52 PM,43.0,43.0,100,29.95,5.0,NNW,6.9,-,0.01,Rain,Light Rain,340,2013-04-18 01:52:00
9:16 PM,42.8,42.8,100,29.94,4.0,NE,6.9,-,0.01,Rain,Light Rain,50,2013-04-18 02:16:00
9:52 PM,41.0,41.0,100,29.94,3.0,NE,6.9,-,0.01,Rain,Light Rain,50,2013-04-18 02:52:00
10:52 PM,42.1,41.0,96,29.88,4.0,East,8.1,-,0.04,Rain,Light Rain,90,2013-04-18 03:52:00
11:52 PM,43.0,42.1,97,29.83,4.0,East,5.8,-,0.04,Rain,Light Rain,100,2013-04-18 04:52:00